sat.trackr.live / text

‹ back to catalog

STARLINK-35874

NORAD 66962 · 2025-288D

PAYLOAD ACTIVE UNKNOWN

§ Identity

Operator
Country
US
Launch date
2025-12-08
Launch site
AFETR
Launch vehicle
Mass (kg)
RCS (m²)

Purposes: comms

External: N2YO · Heavens-Above · Gunter

§ Orbital elements

Epoch: 2026-09-20T08:28:37.009632Z

Period
94.27 min
Inclination
43.0000°
Eccentricity
0.0001461
Mean motion
15.27590887 rev/d
Perigee alt
482.0 km
Apogee alt
484.0 km
Semi-major
6,861.2 km
B*
6.1390e-4
RAAN
4.5270°
Arg perigee
262.8178°
Mean anomaly
97.2507°
Rev number
4,505

§ Raw data

STARLINK-358741 66962U 25288D   26263.35320613  .00016675  00000+0  61390-3 0  99922 66962  43.0000   4.5270 0001461 262.8178  97.2507 15.27590887 45058

JSON: /api/v1/satellites/66962 · /tle

For live sub-satellite position, see the globe view (requires WebGL).

§ Visibility from observer

Set your observer location to see the next 7 days of passes ≥ 10°. The values pass through the URL so the page stays shareable.

No JS? Fill the form by hand. The geolocation button needs JavaScript.